Flag for Honduras Weather past 2 weeks in Choloma, Honduras

Now
82 °F

Passing clouds.


Feels Like: 92 °F
Forecast: 74 / 86 °F
Wind: 10 mph from North

Location: La Mesa San Pedro Sula

Current Time: May 24, 2015 at 7:47:31 PM

Latest Report: May 24, 2015 at 7:00 PM


Visibility: N/A

Pressure: 29.89 "Hg

Humidity: 89%

Dew point: 79 °F

Location of CholomaLocation

Historic Weather in Choloma — Graph

°F

Choloma temperature yesterday

Maximum temperature yesterday: 93 °F (at 12:00 PM)
Minimum temperature yesterday: 77 °F (at 3:00 AM)
Average temperature yesterday: 83 °F

Past Weeks' High & Low Weather Summary

 TemperatureHumidityPressure
High95 °F (May 10, 1:00 PM)100% (May 11, 2:00 AM)30.15 "Hg (May 11, 2:00 AM)
Low72 °F (May 16, 5:00 AM)38% (May 18, 5:00 PM)29.80 "Hg (May 10, 2:00 PM)
Average84 °F82%29.92 "Hg
* Reported May 9 6:00 PM — May 24 6:00 PM, Choloma, Weather by CustomWeather, © 2015

Note: Actual official high and low records may vary slightly from our data, if they occured in-between our weather recording intervals... More about our weather records

Advertising

Choloma weather history for previous 24 hours

 ConditionsComfort  
Time TempWeatherWind HumidityBarometerVisibility
6:00 PM
Sun, May 24
86 °FBroken clouds.12 mph79%29.89 "HgN/A
5:00 PM88 °FBroken clouds.14 mph66%29.86 "HgN/A
4:00 PM91 °FBroken clouds.18 mph59%29.86 "HgN/A
3:00 PM91 °FBroken clouds.15 mph59%29.86 "HgN/A
2:00 PM93 °FBroken clouds.12 mph56%29.89 "HgN/A
1:00 PM93 °FBroken clouds.13 mph59%29.92 "HgN/A
12:00 PM91 °FBroken clouds.7 mph59%29.92 "HgN/A
11:00 AM90 °FBroken clouds.6 mph67%29.95 "HgN/A
10:00 AM86 °FBroken clouds.3 mph75%29.95 "HgN/A
9:00 AM84 °FBroken clouds.No wind89%29.98 "HgN/A
8:00 AM81 °FBroken clouds.No wind100%29.98 "HgN/A
7:00 AM77 °FBroken clouds.No wind100%29.98 "HgN/A
6:00 AM77 °FBroken clouds.No wind100%29.95 "Hg4 mi
5:00 AM77 °FPassing clouds.2 mph100%29.95 "HgN/A
4:00 AM79 °FPassing clouds.2 mph100%29.92 "HgN/A
3:00 AM77 °FPassing clouds.2 mph100%29.92 "HgN/A
2:00 AM77 °FPassing clouds.3 mph100%29.92 "HgN/A
1:00 AMN/APassing clouds.3 mphN/A29.95 "HgN/A
12:00 AM79 °FPassing clouds.2 mph100%29.98 "HgN/A
11:00 PM
Sat, May 23
79 °FPassing clouds.2 mph100%29.98 "HgN/A
10:00 PM81 °FPartly cloudy.2 mph94%29.98 "HgN/A
9:00 PM81 °FPassing clouds.6 mph100%29.98 "HgN/A
8:00 PM81 °FPartly cloudy.7 mph100%29.95 "HgN/A
7:00 PM81 °FPassing clouds.7 mph100%29.95 "HgN/A
Weather by CustomWeather, © 2015

See weather overviewHow to use our weather pages